Starlink 32106

operational
NORAD ID: 59690 Int'l Des: 2024-086 Owner: SPXS Country: US Constellation: starlink
LEOCIRCULAR

About Starlink 32106

Description loading...

Live Position

Loading 3D Globe...

Upcoming Passes

Altitude History

Altitude vs Time

uPlot chart will show altitude changes over time

Two-Line Element Set

1 59690U 24086J 25257.49295026 -.00001169 00000-0 -32963-4 0 9993
2 59690 43.0036 327.3126 0000809 255.5308 104.5454 15.27576771 77258
Epoch: Sep 14, 2025 • Age: 16 hours

Current Status

Altitude 484.9 km
Velocity 7.63 km/s
Sub-Earth Point 34.97°N, 40°E
Launch Date May 8, 2024
Age 1.3 years
Type internet

Technical Details

Classification Payload
Mass 730.00 kg
Dry Mass 700.00 kg
Total Mass 730.00 kg
Length 0.30 m
Diameter 4.10 m
Span 29.00 m
Shape Box + pan
Manufacturer SPXS
Bus Type Starlink V2M
Phase Status In Orbit
Owner/State SPXS/US

Large Constellations

Loading constellations...